Location: Kuppenheim
(48.8299°N, 8.2568°E)
Time: 13:18:55
(UTC+00:00)

Cosmos 1825 - Pass Details

Date: 20 June 2021
Orbit: 501 x 506 km, 82.5° (Epoch: 04 August)

Event Time Altitude Azimuth Distance (km) Brightness Sun altitude
Exits shadow 00:12:59 33° 153° (SSE) 876 2.9 -17.1°
Maximum altitude 00:14:21 52° 95° (E) 639 2.6 -17.0°
Drops below altitude 10° 00:18:03 10° 19° (NNE) 1,730 6.2 -16.9°
Sets 00:20:12 0° 14° (NNE) 2,619 7.6 -16.8°
